{"data":{"norad_id":26998,"intl_designator":"2001-055B","name":"TIMED","alt_names":[],"object_type":"PAYLOAD","status":"ACTIVE","operator":null,"country":"US","launch_date":"2001-12-07","launch_site_code":"AFWTR","launch_vehicle":null,"mission":null,"orbit_class":"UNKNOWN","rcs_meters":2.7177,"size_class":null,"mass_kg":null,"dimensions":null,"purposes":["science"],"wikipedia_slug":null,"has_3d_model":false,"image_url":null,"decayed_at":null,"tle_current":{"epoch":"2026-05-25T03:01:46.847424Z","epoch_age_seconds":64930,"freshness":"FRESH","line1":"1 26998U 01055B   26145.12623666  .00000999  00000+0  94419-4 0  9992","line2":"2 26998  74.0675 281.4485 0000309 152.8352 207.2849 14.95226616327371","mean_motion":14.95226616,"eccentricity":3.09e-5,"inclination_deg":74.0675,"raan_deg":281.4485,"arg_perigee_deg":152.8352,"mean_anomaly_deg":207.2849,"bstar":9.4419e-5,"rev_number":32737,"period_min":96.306471847877,"perigee_km":581.45438708137,"apogee_km":581.88450311967,"semimajor_km":6959.8064451005,"source":"CELESTRAK","updated_at":"2026-05-25T13:38:24.636703Z"}}}